Orbital Elements at Epoch 2459000.5 (2020-May-31.0) TDB
Reference: JPL 12 (heliocentric ecliptic J2000)
Element | Value | Uncertainty (1-sigma) | Units |
e | .249648782741116 | 4.6108e-08 | |
a | 3.130717520553615 | 2.4761e-08 | au |
q | 2.34913770244112 | 1.4252e-07 | au |
i | 10.52529116600605 | 5.2591e-06 | deg |
node | 132.2476972101458 | 2.8631e-05 | deg |
peri | 319.4404759537711 | 3.0837e-05 | deg |
M | 208.0406233306374 | 1.3874e-05 | deg |
tp | 2459854.561716783510 (2022-Oct-02.06171678) | 8.4435e-05 | TDB |
period | 2023.318499858342 5.54 | 2.4004e-05 6.572e-08 | d yr |
n | .1779255218717195 | 2.1109e-09 | deg/d |
Q | 3.91229733866611 | 3.0943e-08 | au |
|
| | Orbit Determination Parameters
Additional Information
|